{"data":{"norad_id":65398,"intl_designator":"2025-191V","name":"STARLINK-34931","alt_names":[],"object_type":"PAYLOAD","status":"ACTIVE","operator":null,"country":"US","launch_date":"2025-08-30","launch_site_code":"AFWTR","launch_vehicle":null,"mission":null,"orbit_class":"UNKNOWN","rcs_meters":null,"size_class":null,"mass_kg":null,"dimensions":null,"purposes":["comms"],"wikipedia_slug":null,"has_3d_model":false,"image_url":null,"decayed_at":null,"tle_current":{"epoch":"2026-09-20T08:57:25.052832Z","epoch_age_seconds":125863,"freshness":"FRESH","line1":"1 65398U 25191V   26263.37320663  .00020888  00000+0  64714-3 0  9998","line2":"2 65398  97.2859 129.4656 0002512  87.3188 272.8343 15.33463618 59622","mean_motion":15.33463618,"eccentricity":0.0002512,"inclination_deg":97.2859,"raan_deg":129.4656,"arg_perigee_deg":87.3188,"mean_anomaly_deg":272.8343,"bstar":0.00064714,"rev_number":5962,"period_min":93.905064528241,"perigee_km":463.76866242449,"apogee_km":467.20689951444,"semimajor_km":6843.6247809695,"source":"CELESTRAK","updated_at":"2026-09-21T09:00:35.601202Z"}}}